Montana Department of Transportation

Main Content

Accidents and Incidents Report

Hourly Weather Roundup

ASUS45 KTFX 210504
RWRMT 
MONTANA HOURLY WEATHER ROUNDUP
NATIONAL WEATHER SERVICE GREAT FALLS MT
1104 PM MDT MON OCT 20 2014

NOTE: "FAIR" INDICATES FEW OR NO CLOUDS BELOW 12000 FEET WITH NO
SIGNIFICANT WEATHER AND/OR OBSTRUCTIONS TO VISIBILITY.

* THESE STATIONS ARE NOT UNDER NWS QUALITY CONTROL. THEY DO NOT
   REPORT WEATHER SUCH AS PRECIPITATION OR FOG.

MTZ001.007-043-210600-
WEST OF THE DIVIDE
CITY           SKY/WX    TMP DP  RH WIND       PRES   REMARKS
KALISPELL      PTCLDY    39  36  89 CALM      29.70S 
MISSOULA       PTCLDY    48  41  77 CALM      29.71F 
BUTTE          PTCLDY    55  32  42 SE3       29.85F 
MULLAN PASS    MOCLDY    45  37  74 NW7       29.83S 
* ESSEX        N/A       47  36  66 NE2        N/A   
* LINCOLN      N/A       43  34  71 NW1        N/A   
* POLSON       N/A       54  35  49 NE1        N/A   
* RONAN APT    PTCLDY    45  39  80 N/A        N/A   
* SEELEY LAKE  N/A       45  37  74 N2         N/A   
* THOMP F APT  PTCLDY    52  33  48 N2G13      N/A   
--------------------------------

MTZ008-052.055-210600-
SOUTHWEST MONTANA
CITY           SKY/WX    TMP DP  RH WIND       PRES   REMARKS
BOZEMAN        PTCLDY    54  36  51 S12       29.83F 
DILLON         PTCLDY    57  34  42 VRB5      29.84F 
W YELLOWSTONE  CLEAR     32  30  92 CALM      30.00F 
* THREE FORKS  CLEAR     57  43  60 SW5        N/A   
* BOULDER HILL N/A       57  28  33 SW12       N/A   
* MONIDA PASS  N/A       48  33  56 S9         N/A   
* RAYNOLDS PAS N/A       49  31  50 SE13       N/A   
* WHITEHALL    N/A       57  30  36 NE3        N/A   
* WISE RIVER   N/A       50  30  46 SE11       N/A   
--------------------------------

MTZ009.010-012-014-046-048-049-054-210600-
EAST SLOPES AND CENTRAL MONTANA
CITY           SKY/WX    TMP DP  RH WIND       PRES   REMARKS
CUT BANK       PTCLDY    50  28  43 SW3       29.71S 
GREAT FALLS    CLEAR     63  34  34 S12       29.70F 
HELENA         CLEAR     57  36  46 N3        29.74F 
MALMSTROM AFB  CLEAR     59  36  42 S13       29.71F 
* CONRAD       CLEAR     43  34  71 SW6        N/A   
* DEARBORN     N/A       49  39  69 S3         N/A   
* EAST GLACIER N/A       49  30  48 NE1        N/A   
* MONARCH      N/A       50  29  44 SE6        N/A   
* PENDROY      N/A       51  31  46 W3         N/A   
* ROGERS PASS  N/A       53  31  43 NW2        N/A   
* SAINT MARY   N/A       50  24  36 SE4G14     N/A   
* SWEET GRASS  N/A       60  28  30 SW13       N/A   
--------------------------------

MTZ011-013-016-021-035-040-045-047-050-051-210600-
NORTH CENTRAL MONTANA
CITY           SKY/WX    TMP DP  RH WIND       PRES   REMARKS
HAVRE          CLEAR     48  43  83 CALM      29.68F 
LEWISTOWN      CLEAR     54  32  43 E6        29.78F 
* CHINOOK      CLEAR     54  43  67 E5        29.69S 
* FORT BENTON  CLEAR     54  34  47 CALM      29.69S 
* CHESTER      N/A       43  26  51 N4         N/A   
* DENTON       N/A       54  36  51 S9         N/A   
* GEYSER       N/A       54  36  51 S12        N/A   
* JUDITH GAP   N/A       46  35  66 SW1        N/A   
* LOMA         N/A       54  34  47 NE11       N/A   
--------------------------------

MTZ017.020-022.027-061-062-210600-
NORTHEAST MONTANA
CITY           SKY/WX    TMP DP  RH WIND       PRES   REMARKS
GLASGOW        CLEAR     52  37  57 E14       29.73F 
GLENDIVE       CLEAR     52  39  61 SW6       29.82F 
JORDAN         CLEAR     48  36  63 N3        29.76F 
SIDNEY         CLEAR     50  41  71 CALM      29.82S 
WOLF POINT     CLEAR     45  37  74 NE3       29.76F 
* BEAVER HILL  N/A       57  42  57 SE15       N/A   
* CIRCLE       N/A       58  40  51 N/A        N/A   
* LINDSAY DVD  N/A       52  39  61 E1         N/A   
* NAVAJO       N/A       57  39  51 SW9G14     N/A   
--------------------------------

MTZ028.042-056.058-210600-
SOUTHCENTRAL AND SOUTHEAST MONTANA
CITY           SKY/WX    TMP DP  RH WIND       PRES   REMARKS
BAKER          CLEAR     48  41  77 E8        29.84F 
BILLINGS       CLEAR57  30  36 S6        29.81S 
LIVINGSTON     CLEAR     57  34  42 CALM      29.84F 
MILES CITY     CLEAR     61  43  52 SE12      29.79F 
* LAUREL APT   CLEAR     55  27  34 N/A        N/A   
* ROUNDUP APT  CLEAR     63  32  31 N/A        N/A   
* ALZADA       N/A       49  44  83 E3         N/A   
* HYSHAM       N/A       69  25  19 SE9        N/A   
* LAME DEER    N/A       63  36  37 SE6        N/A   
* REED POINT   N/A       45  34  65 W2         N/A   
* ROSCOE HILL  N/A       62  26  25 S9G14      N/A   
--------------------------------

REGIONAL REPORTS...DAKOTAS
CITY           SKY/WX    TMP DP  RH WIND       PRES   REMARKS
WILLISTON      CLEAR     57  43  60 S5        29.82R 
DICKINSON      CLEAR     52  39  61 SE10      29.85S 
BEACH          N/A       48  41  77 SE6       29.84F 
CROSBY         CLEAR     54  43  67 S13       29.80F 
TIOGA          CLEAR     52  41  66 SE6       29.87R 
BISMARCK       CLEAR     54  34  47 E9        29.93F 
GRAND FORKS    CLEAR     43  37  79 SE8       30.05R 
FARGO          CLEAR     46  36  68 SE8       30.05R 
RAPID CITY     CLEAR     54  43  67 SE8       29.89F 
--------------------------------

REGIONAL REPORTS...WYOMING/IDAHO/WASHINGTON
CITY           SKY/WX    TMP DP  RH WIND       PRES   REMARKS
GILLETTE       CLEAR     59  32  36 S15       29.88F 
SHERIDAN       CLEAR     39  30  70 SE3       29.85F 
CODY           CLEAR     52  28  40 CALM      29.91S 
YELLOWSTONE LA CLEAR     34  28  79 NW3       30.10F 
SALMON         PTCLDY    48  34  59 S6        29.77S 
MULLAN PASS    MOCLDY    45  37  74 NW7       29.83S 
SAND POINT     CLOUDY    45  45 100 CALM      29.74R 
SPOKANE        CLOUDY    54  43  67 W21       29.80R 

--------------------------------